TimeMDT,TemperatureF,Dew PointF,Humidity,Sea Level PressureIn,VisibilityMPH,Wind Direction,Wind SpeedMPH,Gust SpeedMPH,PrecipitationIn,Events,Conditions,WindDirDegrees,DateUTC
12:53 AM,48.9,39.0,69,29.74,10.0,Calm,Calm,-,N/A,,Clear,0,2013-09-23 06:53:00
1:53 AM,45.0,39.9,82,29.75,10.0,Calm,Calm,-,N/A,,Mostly Cloudy,0,2013-09-23 07:53:00
2:53 AM,48.9,39.0,69,29.76,10.0,SW,3.5,-,N/A,,Overcast,220,2013-09-23 08:53:00
3:53 AM,48.0,39.9,74,29.78,10.0,WNW,3.5,-,N/A,,Overcast,300,2013-09-23 09:53:00
4:53 AM,45.0,39.0,80,29.82,10.0,Calm,Calm,-,N/A,,Scattered Clouds,0,2013-09-23 10:53:00
5:53 AM,45.0,39.0,80,29.83,10.0,Calm,Calm,-,N/A,,Partly Cloudy,0,2013-09-23 11:53:00
6:53 AM,44.1,37.9,79,29.85,10.0,Calm,Calm,-,N/A,,Clear,0,2013-09-23 12:53:00
7:53 AM,46.9,37.9,71,29.86,10.0,Calm,Calm,-,N/A,,Partly Cloudy,0,2013-09-23 13:53:00
8:53 AM,52.0,37.9,59,29.88,10.0,Calm,Calm,-,N/A,,Partly Cloudy,0,2013-09-23 14:53:00
9:53 AM,55.9,37.9,51,29.90,10.0,NW,10.4,-,N/A,,Scattered Clouds,320,2013-09-23 15:53:00
10:53 AM,57.9,34.0,41,29.90,10.0,West,17.3,25.3,N/A,,Partly Cloudy,280,2013-09-23 16:53:00
11:53 AM,60.1,34.0,38,29.90,10.0,West,20.7,-,N/A,,Mostly Cloudy,280,2013-09-23 17:53:00
12:53 PM,60.1,35.1,39,29.91,10.0,WNW,25.3,31.1,N/A,,Clear,290,2013-09-23 18:53:00
1:53 PM,61.0,33.1,35,29.94,10.0,WSW,11.5,23.0,N/A,,Scattered Clouds,250,2013-09-23 19:53:00
2:53 PM,64.0,28.9,27,29.90,10.0,West,15.0,24.2,N/A,,Scattered Clouds,270,2013-09-23 20:53:00
3:53 PM,64.0,28.0,26,29.90,10.0,West,20.7,26.5,N/A,,Scattered Clouds,270,2013-09-23 21:53:00
4:53 PM,63.0,26.1,25,29.92,10.0,West,17.3,21.9,N/A,,Mostly Cloudy,280,2013-09-23 22:53:00
5:53 PM,63.0,28.0,27,29.92,10.0,West,16.1,23.0,N/A,,Clear,280,2013-09-23 23:53:00
6:53 PM,59.0,28.9,32,29.94,10.0,WSW,5.8,-,N/A,,Clear,250,2013-09-24 00:53:00
7:53 PM,57.0,30.0,36,29.96,10.0,SW,4.6,-,N/A,,Clear,220,2013-09-24 01:53:00
8:53 PM,54.0,30.9,41,29.97,10.0,West,5.8,-,N/A,,Clear,270,2013-09-24 02:53:00
9:53 PM,53.1,30.9,43,29.97,10.0,Calm,Calm,-,N/A,,Clear,0,2013-09-24 03:53:00
10:53 PM,51.1,30.9,46,29.97,10.0,Variable,3.5,-,N/A,,Clear,0,2013-09-24 04:53:00
11:53 PM,53.1,30.9,43,29.96,10.0,Calm,Calm,-,N/A,,Clear,0,2013-09-24 05:53:00